Starlink 33911

operational
NORAD ID: 63777 Int'l Des: 2025-091 Owner: SPXS Country: US Constellation: starlink
LEOCIRCULAR

Über Starlink 33911

Beschreibung wird geladen...

Live-Position

3D-Globus wird geladen...

Nächste Überflüge

Höhenverlauf

Altitude vs Time

uPlot chart will show altitude changes over time

Zweizeiliger Elementsatz

1 63777U 25091C 25351.75552614 .00016012 00000-0 59009-3 0 9994
2 63777 42.9997 148.0996 0001462 272.0571 88.0113 15.27581064 36454
Epoch: 17. Dez. 2025 • Age: 15 hours

Aktueller Status

Höhe 495.3 km
Geschwindigkeit 7.62 km/s
Subsatellitenpunkt -43.09°S, 177.9°W
Startdatum 2. Mai 2025
Alter 0.6 years
Typ internet

Technische Details

Klassifizierung Payload
Masse 575.00 kg
Trockenmasse 530.00 kg
Gesamtmasse 575.00 kg
Länge 0.30 m
Durchmesser 4.10 m
Spannweite 29.00 m
Form Box + pan
Hersteller SPXS
Bus-Typ Starlink V2MO
Phasenstatus In Orbit
Besitzer/Staat SPXS/US

Große Konstellationen

Loading constellations...